CFS7757 KMAF-KLBB

Flight info

Callsign CFS7757
Flight time N/A
Altitude 14000
Route DCT MAF V81 LBB DCT
Aircraft AT73/M-SDFGIRY/S

Departure

Time 2026-04-25 23:16
Airport Midland International Air and Space Port (KMAF)

Arrival

Time N/A
Airport Lubbock Preston Smith International Airport (KLBB)
Time Latitude Longitude Altitude Speed Heading
2026-04-25 23:00 31.93480 -102.20651 2865 ft 0 kts 355°
2026-04-25 23:05 31.93463 -102.20651 2865 ft 4 kts 46°
2026-04-25 23:06 31.93457 -102.20676 2865 ft 2 kts 85°
2026-04-25 23:06 31.93456 -102.20683 2865 ft 2 kts 84°
2026-04-25 23:10 31.93456 -102.20682 2865 ft 3 kts 84°
2026-04-25 23:10 31.93461 -102.20601 2865 ft 8 kts 89°
2026-04-25 23:10 31.93461 -102.20528 2864 ft 4 kts 94°
2026-04-25 23:11 31.93435 -102.20481 2864 ft 9 kts 165°
2026-04-25 23:11 31.93380 -102.20475 2864 ft 8 kts 175°
2026-04-25 23:11 31.93320 -102.20469 2864 ft 8 kts 176°
2026-04-25 23:11 31.93266 -102.20455 2863 ft 10 kts 153°
2026-04-25 23:12 31.93213 -102.20395 2862 ft 13 kts 128°
2026-04-25 23:12 31.93221 -102.20295 2859 ft 19 kts 51°
2026-04-25 23:12 31.93318 -102.20140 2859 ft 21 kts 53°
2026-04-25 23:12 31.93414 -102.19988 2857 ft 24 kts 53°
2026-04-25 23:13 31.93518 -102.19828 2861 ft 23 kts 52°
2026-04-25 23:13 31.93614 -102.19671 2861 ft 23 kts 54°
2026-04-25 23:13 31.93720 -102.19504 2864 ft 23 kts 53°
2026-04-25 23:13 31.93816 -102.19352 2863 ft 21 kts 54°
2026-04-25 23:14 31.93869 -102.19232 2863 ft 12 kts 93°
2026-04-25 23:14 31.93904 -102.19179 2861 ft 9 kts 336°
2026-04-25 23:14 31.93909 -102.19193 2862 ft 0 kts 265°
2026-04-25 23:15 31.93906 -102.19203 2862 ft 7 kts 249°
2026-04-25 23:15 31.93773 -102.19418 2863 ft 66 kts 233°
2026-04-25 23:16 31.93376 -102.20045 2917 ft 117 kts 233°
2026-04-25 23:16 31.92894 -102.20826 3600 ft 121 kts 238°
2026-04-25 23:16 31.92413 -102.21717 4133 ft 134 kts 236°
2026-04-25 23:16 31.91874 -102.22641 4805 ft 137 kts 245°
2026-04-25 23:17 31.91961 -102.23737 5423 ft 151 kts 303°
2026-04-25 23:17 31.92962 -102.24253 6120 ft 174 kts 358°
2026-04-25 23:17 31.94096 -102.23686 6869 ft 182 kts 33°
2026-04-25 23:17 31.95114 -102.22811 7648 ft 180 kts 31°
2026-04-25 23:18 31.96154 -102.21988 8415 ft 180 kts 28°
2026-04-25 23:18 31.97220 -102.21228 9182 ft 179 kts 25°
2026-04-25 23:18 31.98303 -102.20505 9925 ft 179 kts 24°
2026-04-25 23:18 31.99414 -102.19845 10633 ft 177 kts 19°
2026-04-25 23:19 32.00549 -102.19280 11329 ft 177 kts 14°
2026-04-25 23:19 32.01732 -102.18850 11922 ft 183 kts
2026-04-25 23:19 32.03125 -102.18594 11998 ft 221 kts
2026-04-25 23:19 32.04754 -102.18377 12009 ft 244 kts
2026-04-25 23:20 32.06509 -102.18132 12012 ft 269 kts
2026-04-25 23:20 32.08433 -102.17863 12003 ft 275 kts
2026-04-25 23:20 32.10313 -102.17584 11999 ft 277 kts
2026-04-25 23:20 32.12218 -102.17280 11987 ft 275 kts
2026-04-25 23:21 32.14106 -102.16978 11979 ft 273 kts
2026-04-25 23:21 32.15981 -102.16682 11965 ft 271 kts
2026-04-25 23:21 32.17845 -102.16383 11965 ft 270 kts
2026-04-25 23:21 32.19709 -102.16086 11951 ft 270 kts
2026-04-25 23:22 32.21563 -102.15789 11946 ft 269 kts
2026-04-25 23:22 32.23416 -102.15491 11936 ft 269 kts
2026-04-25 23:22 32.25268 -102.15199 11927 ft 268 kts
2026-04-25 23:23 32.28969 -102.14613 11902 ft 268 kts
2026-04-25 23:23 32.30817 -102.14304 11904 ft 268 kts
2026-04-25 23:23 32.32663 -102.14006 11891 ft 268 kts
2026-04-25 23:23 32.34512 -102.13708 11853 ft 268 kts
2026-04-25 23:24 32.36360 -102.13411 11848 ft 268 kts
2026-04-25 23:24 32.38212 -102.13113 11853 ft 268 kts
2026-04-25 23:24 32.40060 -102.12809 11849 ft 268 kts
2026-04-25 23:24 32.41907 -102.12512 11850 ft 268 kts
2026-04-25 23:25 32.43732 -102.12221 11847 ft 268 kts
2026-04-25 23:25 32.45604 -102.11920 11855 ft 268 kts
2026-04-25 23:25 32.47453 -102.11618 11868 ft 268 kts
2026-04-25 23:25 32.49302 -102.11321 11874 ft 268 kts
2026-04-25 23:26 32.51148 -102.11027 11887 ft 268 kts
2026-04-25 23:26 32.52979 -102.10732 11894 ft 268 kts
2026-04-25 23:26 32.54826 -102.10430 11905 ft 268 kts
2026-04-25 23:26 32.56670 -102.10130 11916 ft 267 kts
2026-04-25 23:27 32.58516 -102.09831 11931 ft 268 kts
2026-04-25 23:27 32.60374 -102.09529 11935 ft 269 kts
2026-04-25 23:27 32.62230 -102.09230 11943 ft 269 kts
2026-04-25 23:27 32.64086 -102.08928 11947 ft 270 kts
2026-04-25 23:28 32.65943 -102.08626 11955 ft 269 kts
2026-04-25 23:28 32.67804 -102.08323 11963 ft 270 kts
2026-04-25 23:28 32.69660 -102.08021 11968 ft 270 kts
2026-04-25 23:28 32.71523 -102.07717 11976 ft 270 kts
2026-04-25 23:29 32.73380 -102.07419 11976 ft 270 kts
2026-04-25 23:29 32.75244 -102.07115 11978 ft 270 kts
2026-04-25 23:29 32.77105 -102.06812 11979 ft 270 kts
2026-04-25 23:29 32.78971 -102.06508 11979 ft 270 kts
2026-04-25 23:30 32.80808 -102.06211 11977 ft 270 kts
2026-04-25 23:30 32.82674 -102.05909 11972 ft 270 kts
2026-04-25 23:30 32.84543 -102.05602 11972 ft 270 kts
2026-04-25 23:30 32.86406 -102.05299 11962 ft 271 kts
2026-04-25 23:31 32.88273 -102.04995 11957 ft 270 kts
2026-04-25 23:31 32.89443 -102.04802 11954 ft 270 kts